Home > Weather > Jackson > Past weeks

Flag for U.S.A. Weather for the Past 2 Weeks in Jackson, Wyoming, U.S.A.

Now
7 °F

Clear.


Feels Like: -6 °F
Forecast: 10 / 33 °F
Wind: 8 mph from Northeast

Location: Jackson Hole

Current Time: Feb 9, 2016 at 3:54:56 AM

Latest Report: Feb 9, 2016 at 3:15 AM


Visibility: 10 mi

Pressure: 30.58 "Hg (23.80 "Hg at 1901m altitude)

Humidity: 100%

Dew point: 7 °F

Location of JacksonLocation

Historic Weather in Jackson — Graph

°F

Jackson Temperature Yesterday

Maximum temperature yesterday: 30 °F (at 2:51 PM)
Minimum temperature yesterday: 5 °F (at 5:35 AM)
Average temperature yesterday: 13 °F

High & Low Weather Summary for the Past Weeks

 TemperatureHumidityPressure
High37 °F (Feb 7, 12:51 PM)100% (Jan 25, 2:15 AM)30.66 "Hg (Jan 25, 2:15 AM)
Low-8 °F (Feb 2, 7:51 AM)30% (Feb 7, 3:51 PM)29.61 "Hg (Jan 29, 11:35 PM)
Average15 °F88%30.17 "Hg
* Reported Jan 25 2:15 AM — Feb 9 2:35 AM, Jackson, Weather by CustomWeather, © 2016

Note: Actual official high and low records may vary slightly from our data, if they occured in-between our weather recording intervals... More about our weather records

Advertising

Jackson Weather History for the Previous 24 Hours

 ConditionsComfort  
Time TempWeatherWind HumidityBarometerVisibility
2:35 AM
Tue, Feb 9
5 °FClear.8 mph92%30.58 "Hg10 mi
1:55 AM9 °FClear.7 mph100%30.57 "Hg10 mi
1:15 AM9 °FClear.6 mph100%30.57 "Hg10 mi
12:55 AM9 °FClear.6 mph100%30.58 "Hg10 mi
12:35 AM9 °FClear.6 mph100%30.58 "Hg10 mi
12:15 AM9 °FClear.7 mph100%30.58 "Hg10 mi
11:55 PM
Mon, Feb 8
9 °FClear.6 mph92%30.58 "Hg10 mi
11:15 PM10 °FClear.10 mph100%30.57 "Hg10 mi
10:55 PM10 °FClear.6 mph92%30.57 "Hg10 mi
10:35 PM12 °FClear.3 mph100%30.57 "Hg10 mi
9:55 PM10 °FClear.3 mph92%30.58 "Hg10 mi
9:35 PM12 °FClear.5 mph92%30.58 "Hg10 mi
8:55 PM16 °FClear.6 mph93%30.56 "Hg10 mi
7:57 PM14 °FClear.10 mph92%30.57 "Hg10 mi
6:59 PM18 °FClear.No wind93%30.57 "Hg10 mi
5:51 PM21 °FClear.No wind86%30.56 "Hg10 mi
3:51 PM28 °FSunny.No wind80%30.57 "Hg10 mi
2:51 PM30 °FSunny.No wind69%30.57 "Hg10 mi
1:51 PM28 °FSunny.No wind69%30.59 "Hg10 mi
12:43 PM25 °FSunny.No wind80%30.61 "Hg10 mi
11:51 AM25 °FSunny.No wind80%30.64 "Hg10 mi
10:51 AM19 °FSunny.No wind79%30.66 "Hg10 mi
9:51 AM12 °FSunny.No wind92%30.65 "Hg10 mi
9:03 AM7 °FSunny.7 mph85%30.65 "Hg10 mi
7:51 AM5 °FSunny.7 mph92%30.63 "Hg10 mi
6:51 AM10 °FClear.No wind92%30.61 "Hg10 mi
6:35 AM9 °FClear.5 mph92%30.61 "Hg10 mi
6:15 AM7 °FClear.6 mph100%30.60 "Hg10 mi
5:55 AM9 °FClear.5 mph92%30.60 "Hg10 mi
5:35 AM5 °FClear.13 mph92%30.59 "Hg10 mi
5:15 AM7 °FClear.10 mph85%30.59 "Hg10 mi
4:55 AM7 °FClear.7 mph92%30.58 "Hg10 mi
4:35 AM9 °FClear.3 mph92%30.58 "Hg10 mi
4:15 AM9 °FClear.7 mph92%30.58 "Hg10 mi
3:55 AM9 °FClear.6 mph92%30.57 "Hg10 mi
3:35 AM9 °FClear.3 mph92%30.57 "Hg10 mi
3:15 AM10 °FClear.3 mph92%30.58 "Hg10 mi
Weather by CustomWeather, © 2016

See weather overviewHow to use our weather pages